Tracking 19709 objects as of 17-Jun-2019
HD Live streaming from Space Station
objects crossing your sky now

PROGNOZ 6


PROGNOZ 6 is no longer on orbit
PROGNOZ 6 is classified as:


NORAD ID: 10370
Int'l Code: 1977-093A
Perigee: N/A
Apogee: N/A
Inclination: N/A
Period: N/A
Semi major axis: N/A
RCS: N/A
Launch date: September 22, 1977
Source: Commonwealth of Independent States (former USSR) (CIS)
Launch site: TYURATAM MISSILE AND SPACE COMPLEX (TTMTR)
Decay date: 2019-01-16
aabbcc
Your satellite tracking list
Your tracking list is empty




NASA's NSSDC Master Catalog

Two Line Element Set (TLE):
1 10370U 77093A   19016.50411256  .99999999  00000-0  80406-3 0  9991
2 10370  52.5173 268.0854 9392215 232.4241   1.5464  0.25425481 35849
Source of the keplerian elements: AFSPC